Time,TemperatureF,DewpointF,PressureIn,WindDirection,WindDirectionDegrees,WindSpeedMPH,WindSpeedGustMPH,Humidity,HourlyPrecipIn,Conditions,Clouds,dailyrainin,SolarRadiationWatts/m^2,SoftwareType,DateUTC
2013-07-12 00:01:00,72.8,71.3,29.92,South,175,3.0,3.0,95,0.00,,---,0.13,0.00,VWS V14.01,2013-07-12 04:01:00,
2013-07-12 00:03:00,72.8,71.3,29.92,South,175,0.0,3.0,95,0.00,,---,0.00,0.00,VWS V14.01,2013-07-12 04:03:00,
2013-07-12 00:08:00,72.7,71.2,29.92,South,175,0.0,1.0,95,0.00,,---,0.00,0.00,VWS V14.01,2013-07-12 04:08:00,
2013-07-12 00:13:00,72.7,71.2,29.93,South,175,0.0,1.0,95,0.00,,---,0.00,0.00,VWS V14.01,2013-07-12 04:13:00,
2013-07-12 00:18:00,72.7,71.2,29.93,South,175,0.0,2.0,95,0.00,,---,0.00,0.00,VWS V14.01,2013-07-12 04:18:00,
2013-07-12 00:23:00,72.7,71.2,29.93,South,175,1.0,2.0,95,0.00,,---,0.00,0.00,VWS V14.01,2013-07-12 04:23:00,
2013-07-12 00:29:00,72.7,71.2,29.92,SSE,168,0.0,1.0,95,0.00,,---,0.00,0.00,VWS V14.01,2013-07-12 04:29:00,
2013-07-12 00:34:00,72.7,71.2,29.92,SSE,168,0.0,1.0,95,0.00,,---,0.00,0.00,VWS V14.01,2013-07-12 04:34:00,
2013-07-12 00:39:00,72.7,71.2,29.93,SSE,168,0.0,5.0,95,0.00,,---,0.00,0.00,VWS V14.01,2013-07-12 04:39:00,
2013-07-12 00:44:00,72.7,71.2,29.93,SSE,168,0.0,1.0,95,0.00,,---,0.00,0.00,VWS V14.01,2013-07-12 04:44:00,
2013-07-12 00:49:00,72.7,71.2,29.93,SSE,168,0.0,0.0,95,0.01,,---,0.01,0.00,VWS V14.01,2013-07-12 04:49:00,
2013-07-12 00:54:00,72.7,71.2,29.92,SSE,168,0.0,0.0,95,0.01,,---,0.01,0.00,VWS V14.01,2013-07-12 04:54:00,
2013-07-12 00:59:00,72.7,71.2,29.92,SSE,168,0.0,2.0,95,0.01,,---,0.01,0.00,VWS V14.01,2013-07-12 04:59:00,
2013-07-12 01:07:00,72.6,71.1,29.92,SSE,168,0.0,4.0,95,0.11,,---,0.11,0.00,VWS V14.01,2013-07-12 05:07:00,
2013-07-12 01:13:00,72.6,71.1,29.92,SSE,168,0.0,0.0,95,0.16,,---,0.16,0.00,VWS V14.01,2013-07-12 05:13:00,
2013-07-12 01:18:00,72.6,71.1,29.92,SSE,168,0.0,1.0,95,0.18,,---,0.18,0.00,VWS V14.01,2013-07-12 05:18:00,
2013-07-12 01:23:00,72.5,71.3,29.92,SSE,163,0.0,4.0,96,0.19,,---,0.19,0.00,VWS V14.01,2013-07-12 05:23:00,
2013-07-12 01:28:00,72.4,71.2,29.92,SSE,163,0.0,0.0,96,0.20,,---,0.20,0.00,VWS V14.01,2013-07-12 05:28:00,
2013-07-12 01:33:00,72.4,71.2,29.92,SSE,163,0.0,1.0,96,0.21,,---,0.21,0.00,VWS V14.01,2013-07-12 05:33:00,
2013-07-12 01:38:00,72.4,71.2,29.92,SSE,163,0.0,0.0,96,0.21,,---,0.21,0.00,VWS V14.01,2013-07-12 05:38:00,
2013-07-12 01:43:00,72.4,71.2,29.92,SSE,163,0.0,0.0,96,0.22,,---,0.22,0.00,VWS V14.01,2013-07-12 05:43:00,
2013-07-12 01:48:00,72.4,71.2,29.92,SSE,163,0.0,0.0,96,0.22,,---,0.22,0.00,VWS V14.01,2013-07-12 05:48:00,
2013-07-12 01:54:00,72.4,71.2,29.92,SSE,163,0.0,0.0,96,0.22,,---,0.23,0.00,VWS V14.01,2013-07-12 05:54:00,
2013-07-12 01:59:00,72.4,71.2,29.92,SSE,163,0.0,0.0,96,0.22,,---,0.23,0.00,VWS V14.01,2013-07-12 05:59:00,
2013-07-12 02:04:00,72.4,71.2,29.92,SSE,163,0.0,0.0,96,0.23,,---,0.24,0.00,VWS V14.01,2013-07-12 06:04:00,
2013-07-12 02:09:00,72.4,71.2,29.91,SSE,163,0.0,0.0,96,0.17,,---,0.25,0.00,VWS V14.01,2013-07-12 06:09:00,
2013-07-12 02:14:00,72.4,71.2,29.91,SSE,163,0.0,0.0,96,0.10,,---,0.25,0.00,VWS V14.01,2013-07-12 06:14:00,
2013-07-12 02:20:00,72.4,71.2,29.91,SSE,163,0.0,0.0,96,0.09,,---,0.26,0.00,VWS V14.01,2013-07-12 06:20:00,
2013-07-12 02:25:00,72.4,71.2,29.91,SSE,163,0.0,0.0,96,0.09,,---,0.27,0.00,VWS V14.01,2013-07-12 06:25:00,
2013-07-12 02:30:00,72.4,71.2,29.91,SSE,163,0.0,0.0,96,0.07,,---,0.27,0.00,VWS V14.01,2013-07-12 06:30:00,
2013-07-12 02:35:00,72.4,71.2,29.91,SSE,163,0.0,0.0,96,0.07,,---,0.28,0.00,VWS V14.01,2013-07-12 06:35:00,
2013-07-12 02:40:00,72.4,71.2,29.91,SSE,163,0.0,0.0,96,0.07,,---,0.28,0.00,VWS V14.01,2013-07-12 06:40:00,
2013-07-12 02:45:00,72.4,71.2,29.91,SSE,163,0.0,0.0,96,0.08,,---,0.29,0.00,VWS V14.01,2013-07-12 06:45:00,
2013-07-12 02:51:00,72.4,71.2,29.91,SSE,163,0.0,0.0,96,0.07,,---,0.29,0.00,VWS V14.01,2013-07-12 06:51:00,
2013-07-12 02:56:00,72.4,71.2,29.91,SSE,163,0.0,0.0,96,0.08,,---,0.31,0.00,VWS V14.01,2013-07-12 06:56:00,
2013-07-12 03:01:00,72.4,71.2,29.91,SSE,163,0.0,0.0,96,0.09,,---,0.32,0.00,VWS V14.01,2013-07-12 07:01:00,
2013-07-12 03:06:00,72.4,71.2,29.91,SSE,163,0.0,0.0,96,0.09,,---,0.33,0.00,VWS V14.01,2013-07-12 07:06:00,
2013-07-12 03:11:00,72.4,71.2,29.91,SSE,163,0.0,0.0,96,0.09,,---,0.34,0.00,VWS V14.01,2013-07-12 07:11:00,
2013-07-12 03:16:00,72.4,71.2,29.90,SSE,163,0.0,0.0,96,0.08,,---,0.34,0.00,VWS V14.01,2013-07-12 07:16:00,
2013-07-12 03:21:00,72.5,71.3,29.90,SSE,163,0.0,0.0,96,0.09,,---,0.35,0.00,VWS V14.01,2013-07-12 07:21:00,
2013-07-12 03:26:00,72.5,71.3,29.90,SSE,163,0.0,0.0,96,0.08,,---,0.35,0.00,VWS V14.01,2013-07-12 07:26:00,
2013-07-12 03:31:00,72.5,71.3,29.90,SSE,163,0.0,0.0,96,0.08,,---,0.35,0.00,VWS V14.01,2013-07-12 07:31:00,
2013-07-12 03:36:00,72.5,71.3,29.89,SSE,163,1.0,2.0,96,0.07,,---,0.35,0.00,VWS V14.01,2013-07-12 07:36:00,
2013-07-12 03:42:00,72.5,71.3,29.88,SSE,163,0.0,2.0,96,0.08,,---,0.36,0.00,VWS V14.01,2013-07-12 07:42:00,
2013-07-12 03:47:00,72.5,71.3,29.88,SSE,163,0.0,0.0,96,0.08,,---,0.37,0.00,VWS V14.01,2013-07-12 07:47:00,
2013-07-12 03:52:00,72.5,71.3,29.87,SSE,163,1.0,2.0,96,0.08,,---,0.37,0.00,VWS V14.01,2013-07-12 07:52:00,
2013-07-12 03:57:00,72.4,71.2,29.87,SSE,163,0.0,0.0,96,0.07,,---,0.38,0.00,VWS V14.01,2013-07-12 07:57:00,
2013-07-12 04:02:00,72.4,71.2,29.86,SSE,165,0.0,2.0,96,0.06,,---,0.38,0.00,VWS V14.01,2013-07-12 08:02:00,
2013-07-12 04:07:00,72.3,71.1,29.86,SSW,198,5.0,7.0,96,0.05,,---,0.38,0.00,VWS V14.01,2013-07-12 08:07:00,
2013-07-12 04:12:00,72.3,71.1,29.85,SSW,201,4.0,5.0,96,0.04,,---,0.38,0.00,VWS V14.01,2013-07-12 08:12:00,
2013-07-12 04:17:00,72.3,71.1,29.85,SSW,205,3.0,6.0,96,0.04,,---,0.38,0.00,VWS V14.01,2013-07-12 08:17:00,
2013-07-12 04:23:00,72.3,71.1,29.85,SSW,194,0.0,6.0,96,0.03,,---,0.38,0.00,VWS V14.01,2013-07-12 08:23:00,
2013-07-12 04:28:00,72.3,71.1,29.86,South,184,0.0,3.0,96,0.03,,---,0.38,0.00,VWS V14.01,2013-07-12 08:28:00,
2013-07-12 04:33:00,72.2,71.0,29.86,South,184,0.0,1.0,96,0.03,,---,0.38,0.00,VWS V14.01,2013-07-12 08:33:00,
2013-07-12 04:38:00,72.3,71.4,29.87,South,186,2.0,3.0,97,0.04,,---,0.39,0.00,VWS V14.01,2013-07-12 08:38:00,
2013-07-12 04:43:00,72.3,71.4,29.86,South,186,0.0,0.0,97,0.03,,---,0.39,0.00,VWS V14.01,2013-07-12 08:43:00,
2013-07-12 04:48:00,72.3,71.4,29.86,South,186,2.0,2.0,97,0.04,,---,0.40,0.00,VWS V14.01,2013-07-12 08:48:00,
2013-07-12 04:53:00,72.3,71.4,29.85,South,186,0.0,1.0,97,0.03,,---,0.40,0.00,VWS V14.01,2013-07-12 08:53:00,
2013-07-12 04:58:00,72.4,71.5,29.85,South,186,0.0,0.0,97,0.03,,---,0.40,0.00,VWS V14.01,2013-07-12 08:58:00,
2013-07-12 05:04:00,72.3,71.4,29.85,South,186,0.0,1.0,97,0.02,,---,0.40,0.00,VWS V14.01,2013-07-12 09:04:00,
2013-07-12 05:09:00,72.3,71.4,29.86,South,186,2.0,2.0,97,0.02,,---,0.40,0.00,VWS V14.01,2013-07-12 09:09:00,
2013-07-12 05:14:00,72.3,71.4,29.86,South,186,0.0,0.0,97,0.02,,---,0.40,0.00,VWS V14.01,2013-07-12 09:14:00,
2013-07-12 05:19:00,72.4,71.5,29.86,South,186,0.0,1.0,97,0.02,,---,0.40,0.00,VWS V14.01,2013-07-12 09:19:00,
2013-07-12 05:24:00,72.4,71.5,29.86,South,186,0.0,0.0,97,0.02,,---,0.40,0.00,VWS V14.01,2013-07-12 09:24:00,
2013-07-12 05:29:00,72.3,71.4,29.86,South,188,4.0,5.0,97,0.02,,---,0.40,0.00,VWS V14.01,2013-07-12 09:29:00,
2013-07-12 05:34:00,72.4,71.5,29.86,South,190,2.0,6.0,97,0.02,,---,0.40,0.00,VWS V14.01,2013-07-12 09:34:00,
2013-07-12 05:39:00,72.4,71.5,29.86,South,190,0.0,1.0,97,0.02,,---,0.40,0.00,VWS V14.01,2013-07-12 09:39:00,
2013-07-12 05:44:00,72.4,71.5,29.87,South,190,0.0,1.0,97,0.01,,---,0.40,0.00,VWS V14.01,2013-07-12 09:44:00,
2013-07-12 05:49:00,72.4,71.5,29.88,South,190,0.0,2.0,97,0.01,,---,0.40,0.00,VWS V14.01,2013-07-12 09:49:00,
2013-07-12 05:55:00,72.4,71.5,29.88,South,190,0.0,3.0,97,0.00,,---,0.40,0.00,VWS V14.01,2013-07-12 09:55:00,
2013-07-12 06:00:00,72.4,71.5,29.88,South,190,0.0,0.0,97,0.01,,---,0.41,0.00,VWS V14.01,2013-07-12 10:00:00,
2013-07-12 06:05:00,72.5,71.6,29.88,South,190,0.0,1.0,97,0.01,,---,0.41,0.00,VWS V14.01,2013-07-12 10:05:00,
2013-07-12 06:10:00,72.5,71.6,29.88,SSW,192,3.0,4.0,97,0.01,,---,0.41,0.00,VWS V14.01,2013-07-12 10:10:00,
2013-07-12 06:15:00,72.5,71.6,29.88,SSW,202,3.0,5.0,97,0.01,,---,0.41,0.00,VWS V14.01,2013-07-12 10:15:00,
2013-07-12 06:20:00,72.6,71.7,29.88,SSW,204,3.0,5.0,97,0.01,,---,0.41,0.00,VWS V14.01,2013-07-12 10:20:00,
2013-07-12 06:25:00,72.6,71.7,29.88,SW,214,0.0,5.0,97,0.01,,---,0.41,0.00,VWS V14.01,2013-07-12 10:25:00,
2013-07-12 06:30:00,72.7,71.8,29.88,SW,214,0.0,4.0,97,0.01,,---,0.41,0.00,VWS V14.01,2013-07-12 10:30:00,
2013-07-12 06:35:00,72.7,71.8,29.88,SW,214,0.0,3.0,97,0.01,,---,0.41,0.00,VWS V14.01,2013-07-12 10:35:00,
2013-07-12 06:40:00,72.7,71.8,29.88,SW,214,0.0,3.0,97,0.01,,---,0.41,0.00,VWS V14.01,2013-07-12 10:40:00,
2013-07-12 06:45:00,72.7,71.8,29.88,SW,214,0.0,1.0,97,0.02,,---,0.42,0.00,VWS V14.01,2013-07-12 10:45:00,
2013-07-12 06:50:00,72.7,71.8,29.88,SW,214,1.0,3.0,97,0.02,,---,0.42,0.00,VWS V14.01,2013-07-12 10:50:00,
2013-07-12 06:55:00,72.7,71.8,29.88,SW,214,0.0,3.0,97,0.02,,---,0.42,0.00,VWS V14.01,2013-07-12 10:55:00,
2013-07-12 07:00:00,72.7,71.8,29.87,SW,214,0.0,0.0,97,0.02,,---,0.43,0.00,VWS V14.01,2013-07-12 11:00:00,
2013-07-12 07:05:00,72.7,71.8,29.87,SW,214,0.0,0.0,97,0.02,,---,0.43,5.00,VWS V14.01,2013-07-12 11:05:00,
2013-07-12 07:10:00,72.7,71.8,29.89,SW,214,0.0,0.0,97,0.02,,---,0.43,9.00,VWS V14.01,2013-07-12 11:10:00,
2013-07-12 07:16:00,72.7,71.8,29.89,SW,214,0.0,0.0,97,0.02,,---,0.43,11.00,VWS V14.01,2013-07-12 11:16:00,
2013-07-12 07:21:00,72.7,71.8,29.89,SW,214,0.0,0.0,97,0.02,,---,0.43,16.00,VWS V14.01,2013-07-12 11:21:00,
2013-07-12 07:26:00,72.7,71.8,29.89,SW,214,0.0,0.0,97,0.02,,---,0.43,23.00,VWS V14.01,2013-07-12 11:26:00,
2013-07-12 07:31:00,72.7,71.8,29.89,SW,214,2.0,2.0,97,0.02,,---,0.43,33.00,VWS V14.01,2013-07-12 11:31:00,
2013-07-12 07:36:00,72.7,71.8,29.89,SW,214,1.0,3.0,97,0.02,,---,0.43,44.00,VWS V14.01,2013-07-12 11:36:00,
2013-07-12 07:41:00,72.8,71.9,29.89,SW,214,0.0,2.0,97,0.02,,---,0.43,58.00,VWS V14.01,2013-07-12 11:41:00,
2013-07-12 07:47:00,72.8,71.9,29.89,SW,214,0.0,2.0,97,0.01,,---,0.43,69.00,VWS V14.01,2013-07-12 11:47:00,
2013-07-12 07:52:00,72.8,71.9,29.89,SW,214,0.0,0.0,97,0.01,,---,0.43,83.00,VWS V14.01,2013-07-12 11:52:00,
2013-07-12 07:57:00,72.9,72.0,29.89,SW,214,0.0,0.0,97,0.01,,---,0.43,98.00,VWS V14.01,2013-07-12 11:57:00,
2013-07-12 08:02:00,73.0,72.1,29.90,SW,214,0.0,0.0,97,0.00,,---,0.43,116.00,VWS V14.01,2013-07-12 12:02:00,
2013-07-12 08:07:00,73.2,72.3,29.90,SW,214,0.0,0.0,97,0.00,,---,0.43,128.00,VWS V14.01,2013-07-12 12:07:00,
2013-07-12 08:12:00,73.3,72.4,29.91,SW,214,0.0,3.0,97,0.00,,---,0.43,135.00,VWS V14.01,2013-07-12 12:12:00,
2013-07-12 08:17:00,73.3,72.4,29.91,SW,214,0.0,1.0,97,0.00,,---,0.43,134.00,VWS V14.01,2013-07-12 12:17:00,
2013-07-12 08:22:00,73.5,72.6,29.91,SW,214,1.0,4.0,97,0.00,,---,0.43,130.00,VWS V14.01,2013-07-12 12:22:00,
2013-07-12 08:27:00,73.5,72.6,29.91,SW,214,0.0,0.0,97,0.00,,---,0.43,130.00,VWS V14.01,2013-07-12 12:27:00,
2013-07-12 08:33:00,73.5,72.6,29.91,SW,214,1.0,3.0,97,0.00,,---,0.43,125.00,VWS V14.01,2013-07-12 12:33:00,
2013-07-12 08:38:00,73.5,72.6,29.91,SW,214,0.0,0.0,97,0.00,,---,0.43,158.00,VWS V14.01,2013-07-12 12:38:00,
2013-07-12 08:43:00,73.6,72.7,29.91,SW,214,4.0,4.0,97,0.00,,---,0.43,160.00,VWS V14.01,2013-07-12 12:43:00,
2013-07-12 08:48:00,73.7,72.8,29.91,SW,214,0.0,3.0,97,0.00,,---,0.43,156.00,VWS V14.01,2013-07-12 12:48:00,
2013-07-12 08:53:00,73.8,72.9,29.92,SW,214,0.0,0.0,97,0.00,,---,0.43,137.00,VWS V14.01,2013-07-12 12:53:00,
2013-07-12 08:58:00,73.9,73.0,29.92,SW,214,0.0,0.0,97,0.00,,---,0.43,125.00,VWS V14.01,2013-07-12 12:58:00,
2013-07-12 09:03:00,73.8,72.9,29.92,SW,214,0.0,2.0,97,0.00,,---,0.43,202.00,VWS V14.01,2013-07-12 13:03:00,
2013-07-12 09:09:00,73.9,73.0,29.92,SSW,213,4.0,5.0,97,0.00,,---,0.43,218.00,VWS V14.01,2013-07-12 13:09:00,
2013-07-12 09:14:00,74.0,73.1,29.92,SW,214,3.0,4.0,97,0.00,,---,0.43,211.00,VWS V14.01,2013-07-12 13:14:00,
2013-07-12 09:19:00,74.2,73.3,29.92,SW,214,2.0,4.0,97,0.00,,---,0.43,207.00,VWS V14.01,2013-07-12 13:19:00,
2013-07-12 09:24:00,74.3,73.1,29.92,SW,214,3.0,4.0,96,0.00,,---,0.43,232.00,VWS V14.01,2013-07-12 13:24:00,
2013-07-12 09:29:00,74.3,73.1,29.92,SW,214,0.0,4.0,96,0.00,,---,0.43,257.00,VWS V14.01,2013-07-12 13:29:00,
2013-07-12 09:35:00,74.4,73.2,29.92,SW,214,2.0,3.0,96,0.00,,---,0.43,278.00,VWS V14.01,2013-07-12 13:35:00,
2013-07-12 09:40:00,74.5,73.3,29.92,SW,214,0.0,1.0,96,0.00,,---,0.43,325.00,VWS V14.01,2013-07-12 13:40:00,
2013-07-12 09:45:00,74.9,73.7,29.93,SW,214,0.0,1.0,96,0.00,,---,0.43,406.00,VWS V14.01,2013-07-12 13:45:00,
2013-07-12 09:50:00,75.2,74.0,29.92,SW,214,0.0,1.0,96,0.00,,---,0.43,455.00,VWS V14.01,2013-07-12 13:50:00,
2013-07-12 09:55:00,75.3,73.8,29.92,SW,214,0.0,1.0,95,0.00,,---,0.43,383.00,VWS V14.01,2013-07-12 13:55:00,
2013-07-12 10:00:00,75.5,74.0,29.92,SW,214,2.0,3.0,95,0.00,,---,0.43,341.00,VWS V14.01,2013-07-12 14:00:00,
2013-07-12 10:05:00,75.7,73.8,29.92,SW,214,0.0,2.0,94,0.00,,---,0.43,366.00,VWS V14.01,2013-07-12 14:05:00,
2013-07-12 10:10:00,75.9,73.7,29.92,SW,214,0.0,0.0,93,0.00,,---,0.43,475.00,VWS V14.01,2013-07-12 14:10:00,
2013-07-12 10:15:00,76.4,74.2,29.92,SW,214,0.0,0.0,93,0.00,,---,0.43,399.00,VWS V14.01,2013-07-12 14:15:00,
2013-07-12 10:20:00,76.7,74.2,29.92,SW,227,3.0,3.0,92,0.00,,---,0.43,661.00,VWS V14.01,2013-07-12 14:20:00,
2013-07-12 10:25:00,77.2,74.4,29.92,SW,227,0.0,0.0,91,0.00,,---,0.43,679.00,VWS V14.01,2013-07-12 14:25:00,
2013-07-12 10:31:00,78.0,75.2,29.92,SW,217,1.0,3.0,91,0.00,,---,0.43,661.00,VWS V14.01,2013-07-12 14:31:00,
2013-07-12 10:36:00,78.4,74.9,29.92,SW,217,0.0,0.0,89,0.00,,---,0.43,568.00,VWS V14.01,2013-07-12 14:36:00,
2013-07-12 10:41:00,78.7,74.5,29.92,SW,217,0.0,0.0,87,0.00,,---,0.43,529.00,VWS V14.01,2013-07-12 14:41:00,
2013-07-12 10:46:00,79.0,74.8,29.92,SW,217,0.0,0.0,87,0.00,,---,0.43,515.00,VWS V14.01,2013-07-12 14:46:00,
2013-07-12 10:51:00,79.3,74.8,29.92,SW,218,3.0,3.0,86,0.00,,---,0.43,438.00,VWS V14.01,2013-07-12 14:51:00,
2013-07-12 10:56:00,79.3,74.1,29.93,SW,217,0.0,0.0,84,0.00,,---,0.43,345.00,VWS V14.01,2013-07-12 14:56:00,
2013-07-12 11:01:00,79.4,74.5,29.93,SW,217,0.0,1.0,85,0.00,,---,0.43,355.00,VWS V14.01,2013-07-12 15:01:00,
2013-07-12 11:07:00,79.8,74.9,29.92,SW,217,0.0,0.0,85,0.00,,---,0.43,325.00,VWS V14.01,2013-07-12 15:07:00,
2013-07-12 11:12:00,79.8,74.2,29.93,SW,217,0.0,0.0,83,0.00,,---,0.43,325.00,VWS V14.01,2013-07-12 15:12:00,
2013-07-12 11:17:00,79.9,74.3,29.92,SW,217,0.0,0.0,83,0.00,,---,0.43,434.00,VWS V14.01,2013-07-12 15:17:00,
2013-07-12 11:22:00,80.1,74.5,29.93,SSW,213,0.0,1.0,83,0.00,,---,0.43,766.00,VWS V14.01,2013-07-12 15:22:00,
2013-07-12 11:27:00,80.3,74.3,29.93,SSW,213,0.0,0.0,82,0.00,,---,0.43,524.00,VWS V14.01,2013-07-12 15:27:00,
2013-07-12 11:32:00,80.5,74.9,29.93,SSW,211,0.0,4.0,83,0.00,,---,0.43,441.00,VWS V14.01,2013-07-12 15:32:00,
2013-07-12 11:37:00,80.7,75.4,29.93,SSW,211,0.0,1.0,84,0.00,,---,0.43,315.00,VWS V14.01,2013-07-12 15:37:00,
2013-07-12 11:42:00,80.9,75.6,29.93,SSW,211,0.0,0.0,84,0.00,,---,0.43,258.00,VWS V14.01,2013-07-12 15:42:00,
2013-07-12 11:48:00,80.9,75.3,29.93,SSW,211,0.0,0.0,83,0.00,,---,0.43,232.00,VWS V14.01,2013-07-12 15:48:00,
2013-07-12 11:53:00,80.8,75.2,29.93,SSW,211,0.0,0.0,83,0.00,,---,0.43,216.00,VWS V14.01,2013-07-12 15:53:00,
2013-07-12 11:58:00,80.7,75.1,29.93,SSW,211,0.0,2.0,83,0.00,,---,0.43,172.00,VWS V14.01,2013-07-12 15:58:00,
2013-07-12 12:03:00,80.6,75.0,29.93,SSW,210,0.0,2.0,83,0.00,,---,0.43,165.00,VWS V14.01,2013-07-12 16:03:00,
2013-07-12 12:08:00,80.4,74.8,29.93,SSW,211,0.0,0.0,83,0.00,,---,0.43,183.00,VWS V14.01,2013-07-12 16:08:00,
2013-07-12 12:13:00,80.2,74.6,29.93,SSW,211,0.0,3.0,83,0.00,,---,0.43,230.00,VWS V14.01,2013-07-12 16:13:00,
2013-07-12 12:18:00,80.0,74.7,29.92,SSW,211,0.0,1.0,84,0.00,,---,0.43,343.00,VWS V14.01,2013-07-12 16:18:00,
2013-07-12 12:24:00,80.0,75.1,29.92,SSW,211,0.0,1.0,85,0.00,,---,0.43,499.00,VWS V14.01,2013-07-12 16:24:00,
2013-07-12 12:29:00,80.1,74.8,29.92,SSW,209,2.0,5.0,84,0.00,,---,0.43,403.00,VWS V14.01,2013-07-12 16:29:00,
2013-07-12 12:34:00,80.3,75.7,29.93,SSW,209,0.0,1.0,86,0.00,,---,0.43,466.00,VWS V14.01,2013-07-12 16:34:00,
2013-07-12 12:39:00,80.5,75.2,29.92,SSW,209,0.0,0.0,84,0.00,,---,0.43,448.00,VWS V14.01,2013-07-12 16:39:00,
2013-07-12 12:44:00,80.7,75.1,29.92,SSW,209,0.0,1.0,83,0.00,,---,0.43,503.00,VWS V14.01,2013-07-12 16:44:00,
2013-07-12 12:49:00,80.7,75.1,29.93,SSW,207,0.0,4.0,83,0.00,,---,0.43,497.00,VWS V14.01,2013-07-12 16:49:00,
2013-07-12 12:54:00,81.1,76.2,29.92,SSW,207,0.0,1.0,85,0.00,,---,0.43,401.00,VWS V14.01,2013-07-12 16:54:00,
2013-07-12 12:59:00,81.2,75.6,29.92,SSW,207,0.0,0.0,83,0.00,,---,0.43,330.00,VWS V14.01,2013-07-12 16:59:00,
2013-07-12 13:05:00,81.4,75.7,29.92,SSW,207,0.0,1.0,83,0.00,,---,0.43,345.00,VWS V14.01,2013-07-12 17:05:00,
2013-07-12 13:10:00,81.5,75.5,29.92,SSW,202,0.0,4.0,82,0.00,,---,0.43,452.00,VWS V14.01,2013-07-12 17:10:00,
2013-07-12 13:15:00,81.5,75.8,29.92,South,186,0.0,5.0,83,0.00,,---,0.43,487.00,VWS V14.01,2013-07-12 17:15:00,
2013-07-12 13:20:00,81.7,76.4,29.92,South,171,0.0,6.0,84,0.00,,---,0.43,613.00,VWS V14.01,2013-07-12 17:20:00,
2013-07-12 13:25:00,81.8,75.8,29.91,South,169,2.0,6.0,82,0.00,,---,0.43,568.00,VWS V14.01,2013-07-12 17:25:00,
2013-07-12 13:30:00,81.8,75.8,29.91,South,169,0.0,6.0,82,0.00,,---,0.43,459.00,VWS V14.01,2013-07-12 17:30:00,
2013-07-12 13:35:00,81.8,76.1,29.91,South,169,0.0,0.0,83,0.00,,---,0.43,427.00,VWS V14.01,2013-07-12 17:35:00,
2013-07-12 13:40:00,81.8,76.1,29.91,South,169,0.0,0.0,83,0.00,,---,0.43,408.00,VWS V14.01,2013-07-12 17:40:00,
2013-07-12 13:45:00,82.0,76.0,29.92,South,169,0.0,0.0,82,0.00,,---,0.43,408.00,VWS V14.01,2013-07-12 17:45:00,
2013-07-12 13:51:00,82.0,76.3,29.91,South,169,0.0,0.0,83,0.00,,---,0.43,431.00,VWS V14.01,2013-07-12 17:51:00,
2013-07-12 13:56:00,82.1,76.1,29.92,South,169,0.0,0.0,82,0.00,,---,0.43,431.00,VWS V14.01,2013-07-12 17:56:00,
2013-07-12 14:01:00,82.1,75.7,29.92,South,169,0.0,0.0,81,0.00,,---,0.43,415.00,VWS V14.01,2013-07-12 18:01:00,
2013-07-12 14:06:00,82.2,75.8,29.92,South,169,0.0,1.0,81,0.00,,---,0.43,392.00,VWS V14.01,2013-07-12 18:06:00,
2013-07-12 14:11:00,82.1,75.3,29.91,South,169,0.0,0.0,80,0.00,,---,0.43,357.00,VWS V14.01,2013-07-12 18:11:00,
2013-07-12 14:16:00,81.9,75.9,29.91,South,169,1.0,7.0,82,0.00,,---,0.43,295.00,VWS V14.01,2013-07-12 18:16:00,
2013-07-12 14:21:00,81.8,75.8,29.92,South,169,0.0,1.0,82,0.00,,---,0.43,279.00,VWS V14.01,2013-07-12 18:21:00,
2013-07-12 14:27:00,81.6,75.9,29.92,SSE,163,0.0,1.0,83,0.00,,---,0.43,285.00,VWS V14.01,2013-07-12 18:27:00,
2013-07-12 14:32:00,81.5,75.8,29.92,SSE,163,1.0,1.0,83,0.00,,---,0.43,260.00,VWS V14.01,2013-07-12 18:32:00,
2013-07-12 14:37:00,81.4,76.1,29.92,SSE,163,0.0,1.0,84,0.00,,---,0.43,272.00,VWS V14.01,2013-07-12 18:37:00,
2013-07-12 14:42:00,81.3,75.7,29.91,SSE,163,0.0,4.0,83,0.00,,---,0.43,279.00,VWS V14.01,2013-07-12 18:42:00,
2013-07-12 14:47:00,81.2,75.6,29.91,SSE,163,0.0,1.0,83,0.00,,---,0.43,281.00,VWS V14.01,2013-07-12 18:47:00,
2013-07-12 14:52:00,81.1,75.8,29.91,SSE,163,0.0,0.0,84,0.00,,---,0.43,311.00,VWS V14.01,2013-07-12 18:52:00,
2013-07-12 14:57:00,81.2,75.9,29.91,SSE,163,0.0,2.0,84,0.00,,---,0.43,343.00,VWS V14.01,2013-07-12 18:57:00,
2013-07-12 15:03:00,81.2,75.6,29.91,SSE,159,0.0,5.0,83,0.00,,---,0.43,504.00,VWS V14.01,2013-07-12 19:03:00,
2013-07-12 15:08:00,81.4,76.1,29.91,SSE,159,0.0,5.0,84,0.00,,---,0.43,780.00,VWS V14.01,2013-07-12 19:08:00,
2013-07-12 15:13:00,81.8,76.5,29.91,SSE,160,0.0,6.0,84,0.00,,---,0.43,1030.00,VWS V14.01,2013-07-12 19:13:00,
2013-07-12 15:18:00,82.3,76.3,29.91,SSE,152,0.0,6.0,82,0.00,,---,0.43,923.00,VWS V14.01,2013-07-12 19:18:00,
2013-07-12 15:23:00,82.9,76.8,29.91,SE,135,0.0,5.0,82,0.00,,---,0.43,1090.00,VWS V14.01,2013-07-12 19:23:00,
2013-07-12 15:28:00,83.5,77.4,29.91,SE,134,0.0,1.0,82,0.00,,---,0.43,780.00,VWS V14.01,2013-07-12 19:28:00,
2013-07-12 15:34:00,83.9,76.7,29.91,SE,134,0.0,4.0,79,0.00,,---,0.43,715.00,VWS V14.01,2013-07-12 19:34:00,
2013-07-12 15:39:00,83.8,76.2,29.90,SE,133,1.0,4.0,78,0.00,,---,0.43,726.00,VWS V14.01,2013-07-12 19:39:00,
2013-07-12 15:44:00,83.6,75.6,29.91,SE,133,0.0,5.0,77,0.00,,---,0.43,564.00,VWS V14.01,2013-07-12 19:44:00,
2013-07-12 15:49:00,83.7,76.5,29.91,SE,133,0.0,0.0,79,0.00,,---,0.43,383.00,VWS V14.01,2013-07-12 19:49:00,
2013-07-12 15:55:00,84.0,76.4,29.91,SE,133,0.0,4.0,78,0.00,,---,0.43,1021.00,VWS V14.01,2013-07-12 19:55:00,
2013-07-12 16:00:00,84.3,76.3,29.91,SE,132,0.0,4.0,77,0.00,,---,0.43,654.00,VWS V14.01,2013-07-12 20:00:00,
2013-07-12 16:05:00,84.5,76.5,29.90,SE,139,0.0,5.0,77,0.00,,---,0.43,601.00,VWS V14.01,2013-07-12 20:05:00,
2013-07-12 16:10:00,84.6,76.2,29.90,SE,138,0.0,3.0,76,0.00,,---,0.43,322.00,VWS V14.01,2013-07-12 20:10:00,
2013-07-12 16:15:00,84.5,77.7,29.90,SE,138,0.0,1.0,80,0.00,,---,0.43,448.00,VWS V14.01,2013-07-12 20:15:00,
2013-07-12 16:20:00,84.5,76.9,29.89,SE,138,0.0,4.0,78,0.00,,---,0.43,246.00,VWS V14.01,2013-07-12 20:20:00,
2013-07-12 16:25:00,84.3,75.9,29.90,SE,138,0.0,0.0,76,0.00,,---,0.43,260.00,VWS V14.01,2013-07-12 20:25:00,
2013-07-12 16:30:00,84.2,76.6,29.89,SE,138,0.0,0.0,78,0.00,,---,0.43,264.00,VWS V14.01,2013-07-12 20:30:00,
2013-07-12 16:36:00,83.9,75.9,29.89,SE,138,0.0,0.0,77,0.00,,---,0.43,404.00,VWS V14.01,2013-07-12 20:36:00,
2013-07-12 16:41:00,83.8,75.8,29.89,SE,138,0.0,0.0,77,0.00,,---,0.43,427.00,VWS V14.01,2013-07-12 20:41:00,
2013-07-12 16:46:00,83.8,76.2,29.89,SE,138,1.0,1.0,78,0.00,,---,0.43,443.00,VWS V14.01,2013-07-12 20:46:00,
2013-07-12 16:51:00,84.0,76.8,29.89,SE,138,0.0,0.0,79,0.00,,---,0.43,988.00,VWS V14.01,2013-07-12 20:51:00,
2013-07-12 16:56:00,84.3,76.7,29.89,SE,138,0.0,0.0,78,0.00,,---,0.43,652.00,VWS V14.01,2013-07-12 20:56:00,
2013-07-12 17:01:00,84.5,76.9,29.89,SE,138,0.0,0.0,78,0.00,,---,0.43,446.00,VWS V14.01,2013-07-12 21:01:00,
2013-07-12 17:06:00,84.7,77.1,29.88,SE,138,0.0,0.0,78,0.00,,---,0.43,352.00,VWS V14.01,2013-07-12 21:06:00,
2013-07-12 17:11:00,84.8,76.4,29.88,SE,138,0.0,3.0,76,0.00,,---,0.43,410.00,VWS V14.01,2013-07-12 21:11:00,
2013-07-12 17:16:00,84.9,77.3,29.88,SE,138,0.0,2.0,78,0.00,,---,0.43,805.00,VWS V14.01,2013-07-12 21:16:00,
2013-07-12 17:21:00,85.2,76.4,29.88,SE,138,3.0,3.0,75,0.00,,---,0.43,744.00,VWS V14.01,2013-07-12 21:21:00,
2013-07-12 17:27:00,85.3,76.5,29.88,SSE,148,0.0,2.0,75,0.00,,---,0.43,258.00,VWS V14.01,2013-07-12 21:27:00,
2013-07-12 17:32:00,85.4,76.6,29.88,SSE,148,0.0,0.0,75,0.00,,---,0.43,274.00,VWS V14.01,2013-07-12 21:32:00,
2013-07-12 17:37:00,85.2,76.4,29.88,SSE,148,0.0,1.0,75,0.00,,---,0.43,190.00,VWS V14.01,2013-07-12 21:37:00,
2013-07-12 17:42:00,85.0,76.6,29.88,SSE,148,0.0,2.0,76,0.00,,---,0.43,237.00,VWS V14.01,2013-07-12 21:42:00,
2013-07-12 17:47:00,84.7,75.9,29.89,SE,144,2.0,4.0,75,0.00,,---,0.43,236.00,VWS V14.01,2013-07-12 21:47:00,
2013-07-12 17:53:00,84.3,76.3,29.89,SE,144,0.0,1.0,77,0.00,,---,0.43,265.00,VWS V14.01,2013-07-12 21:53:00,
2013-07-12 17:58:00,84.2,75.8,29.89,SE,144,0.0,5.0,76,0.00,,---,0.43,239.00,VWS V14.01,2013-07-12 21:58:00,
2013-07-12 18:03:00,84.0,76.4,29.89,SE,140,3.0,5.0,78,0.00,,---,0.43,260.00,VWS V14.01,2013-07-12 22:03:00,
2013-07-12 18:08:00,83.8,76.2,29.90,SE,140,0.0,4.0,78,0.00,,---,0.43,197.00,VWS V14.01,2013-07-12 22:08:00,
2013-07-12 18:13:00,83.6,76.4,29.90,SE,140,0.0,0.0,79,0.00,,---,0.43,176.00,VWS V14.01,2013-07-12 22:13:00,
2013-07-12 18:19:00,83.4,75.8,29.90,SE,140,0.0,1.0,78,0.00,,---,0.43,174.00,VWS V14.01,2013-07-12 22:19:00,
2013-07-12 18:24:00,83.2,76.0,29.90,SE,140,0.0,3.0,79,0.00,,---,0.43,160.00,VWS V14.01,2013-07-12 22:24:00,
2013-07-12 18:30:00,83.0,76.2,29.90,SE,140,0.0,3.0,80,0.00,,---,0.43,165.00,VWS V14.01,2013-07-12 22:30:00,
2013-07-12 18:35:00,82.8,76.0,29.90,SE,140,0.0,3.0,80,0.00,,---,0.43,148.00,VWS V14.01,2013-07-12 22:35:00,
2013-07-12 18:40:00,82.6,76.2,29.90,SE,140,0.0,0.0,81,0.00,,---,0.43,111.00,VWS V14.01,2013-07-12 22:40:00,
2013-07-12 18:45:00,82.4,76.0,29.91,SE,140,0.0,4.0,81,0.00,,---,0.43,88.00,VWS V14.01,2013-07-12 22:45:00,
2013-07-12 18:50:00,82.3,76.3,29.91,SE,140,1.0,1.0,82,0.00,,---,0.43,88.00,VWS V14.01,2013-07-12 22:50:00,
2013-07-12 18:55:00,82.1,76.1,29.91,SE,140,0.0,0.0,82,0.00,,---,0.43,84.00,VWS V14.01,2013-07-12 22:55:00,
2013-07-12 19:01:00,82.0,76.3,29.91,SE,140,0.0,0.0,83,0.00,,---,0.43,93.00,VWS V14.01,2013-07-12 23:01:00,
2013-07-12 19:06:00,81.9,76.2,29.91,SE,140,0.0,0.0,83,0.00,,---,0.43,100.00,VWS V14.01,2013-07-12 23:06:00,
2013-07-12 19:11:00,81.8,76.1,29.91,SE,140,0.0,0.0,83,0.00,,---,0.43,98.00,VWS V14.01,2013-07-12 23:11:00,
2013-07-12 19:17:00,81.7,76.0,29.91,SE,140,0.0,0.0,83,0.00,,---,0.43,114.00,VWS V14.01,2013-07-12 23:17:00,
2013-07-12 19:22:00,81.6,76.3,29.91,SE,140,0.0,0.0,84,0.00,,---,0.43,127.00,VWS V14.01,2013-07-12 23:22:00,
2013-07-12 19:27:00,81.6,76.3,29.92,SE,140,2.0,2.0,84,0.00,,---,0.43,111.00,VWS V14.01,2013-07-12 23:27:00,
2013-07-12 19:32:00,81.6,76.3,29.91,SE,140,0.0,0.0,84,0.00,,---,0.43,102.00,VWS V14.01,2013-07-12 23:32:00,
2013-07-12 19:37:00,81.5,75.8,29.91,SE,140,0.0,2.0,83,0.00,,---,0.43,100.00,VWS V14.01,2013-07-12 23:37:00,
2013-07-12 19:42:00,81.4,76.1,29.90,SE,140,0.0,0.0,84,0.00,,---,0.43,65.00,VWS V14.01,2013-07-12 23:42:00,
2013-07-12 19:47:00,81.3,76.0,29.91,SE,140,0.0,0.0,84,0.00,,---,0.43,51.00,VWS V14.01,2013-07-12 23:47:00,
2013-07-12 19:52:00,81.2,76.3,29.91,SE,140,0.0,1.0,85,0.00,,---,0.43,37.00,VWS V14.01,2013-07-12 23:52:00,
2013-07-12 19:58:00,81.1,76.2,29.92,SE,140,0.0,1.0,85,0.00,,---,0.43,25.00,VWS V14.01,2013-07-12 23:58:00,
2013-07-12 20:03:00,80.9,76.3,29.92,SE,140,0.0,0.0,86,0.00,,---,0.43,14.00,VWS V14.01,2013-07-13 00:03:00,
2013-07-12 20:08:00,80.8,76.2,29.92,SE,140,0.0,0.0,86,0.00,,---,0.43,11.00,VWS V14.01,2013-07-13 00:08:00,
2013-07-12 20:13:00,80.6,76.0,29.92,SE,140,0.0,0.0,86,0.00,,---,0.43,7.00,VWS V14.01,2013-07-13 00:13:00,
2013-07-12 20:18:00,80.4,75.8,29.92,SE,140,0.0,0.0,86,0.00,,---,0.43,5.00,VWS V14.01,2013-07-13 00:18:00,
2013-07-12 20:23:00,80.3,76.1,29.93,SE,140,0.0,0.0,87,0.00,,---,0.43,0.00,VWS V14.01,2013-07-13 00:23:00,
2013-07-12 20:28:00,80.2,76.0,29.93,SE,140,0.0,0.0,87,0.00,,---,0.43,0.00,VWS V14.01,2013-07-13 00:28:00,
2013-07-12 20:34:00,80.0,76.1,29.93,SE,140,0.0,0.0,88,0.00,,---,0.43,0.00,VWS V14.01,2013-07-13 00:34:00,
2013-07-12 20:39:00,79.8,75.9,29.93,SE,140,0.0,0.0,88,0.00,,---,0.43,0.00,VWS V14.01,2013-07-13 00:39:00,
2013-07-12 20:44:00,79.6,75.7,29.93,SE,140,0.0,3.0,88,0.00,,---,0.43,0.00,VWS V14.01,2013-07-13 00:44:00,
2013-07-12 20:49:00,79.4,75.9,29.93,SE,140,0.0,0.0,89,0.00,,---,0.43,0.00,VWS V14.01,2013-07-13 00:49:00,
2013-07-12 20:54:00,79.2,75.7,29.94,SE,140,0.0,3.0,89,0.00,,---,0.43,0.00,VWS V14.01,2013-07-13 00:54:00,
2013-07-12 20:59:00,79.0,75.5,29.94,SE,140,0.0,4.0,89,0.00,,---,0.43,0.00,VWS V14.01,2013-07-13 00:59:00,
2013-07-12 21:05:00,78.8,75.3,29.93,SE,140,2.0,3.0,89,0.00,,---,0.43,0.00,VWS V14.01,2013-07-13 01:05:00,
2013-07-12 21:10:00,78.7,75.2,29.94,SE,140,0.0,3.0,89,0.00,,---,0.43,0.00,VWS V14.01,2013-07-13 01:10:00,
2013-07-12 21:15:00,78.5,75.3,29.95,SE,140,0.0,4.0,90,0.00,,---,0.43,0.00,VWS V14.01,2013-07-13 01:15:00,
2013-07-12 21:20:00,78.2,74.4,29.95,ESE,117,3.0,8.0,88,0.00,,---,0.43,0.00,VWS V14.01,2013-07-13 01:20:00,
2013-07-12 21:25:00,77.7,72.1,29.95,ESE,118,0.0,11.0,83,0.00,,---,0.43,0.00,VWS V14.01,2013-07-13 01:25:00,
2013-07-12 21:30:00,77.4,71.5,29.94,ESE,117,0.0,3.0,82,0.00,,---,0.43,0.00,VWS V14.01,2013-07-13 01:30:00,
2013-07-12 21:35:00,77.1,70.5,29.94,ESE,117,6.0,6.0,80,0.00,,---,0.43,0.00,VWS V14.01,2013-07-13 01:35:00,
2013-07-12 21:40:00,76.8,70.2,29.94,ESE,117,0.0,7.0,80,0.00,,---,0.43,0.00,VWS V14.01,2013-07-13 01:40:00,
2013-07-12 21:45:00,76.6,70.7,29.93,ESE,117,2.0,2.0,82,0.00,,---,0.43,0.00,VWS V14.01,2013-07-13 01:45:00,
2013-07-12 21:50:00,76.2,69.9,29.92,ESE,114,0.0,7.0,81,0.00,,---,0.43,0.00,VWS V14.01,2013-07-13 01:50:00,
2013-07-12 21:55:00,75.9,69.7,29.92,ESE,117,4.0,4.0,81,0.00,,---,0.43,0.00,VWS V14.01,2013-07-13 01:55:00,
2013-07-12 22:01:00,75.5,69.6,29.93,ESE,118,3.0,3.0,82,0.00,,---,0.43,0.00,VWS V14.01,2013-07-13 02:01:00,
2013-07-12 22:06:00,75.2,69.7,29.93,ESE,115,1.0,4.0,83,0.00,,---,0.43,0.00,VWS V14.01,2013-07-13 02:06:00,
2013-07-12 22:11:00,74.9,69.4,29.93,ESE,113,0.0,2.0,83,0.00,,---,0.43,0.00,VWS V14.01,2013-07-13 02:11:00,
2013-07-12 22:16:00,74.7,69.6,29.94,ESE,113,0.0,0.0,84,0.00,,---,0.43,0.00,VWS V14.01,2013-07-13 02:16:00,
2013-07-12 22:21:00,74.6,69.4,29.93,ESE,113,2.0,2.0,84,0.00,,---,0.43,0.00,VWS V14.01,2013-07-13 02:21:00,
2013-07-12 22:26:00,74.4,69.3,29.93,ESE,113,0.0,0.0,84,0.00,,---,0.43,0.00,VWS V14.01,2013-07-13 02:26:00,
2013-07-12 22:31:00,74.3,69.5,29.93,ESE,113,0.0,1.0,85,0.00,,---,0.43,0.00,VWS V14.01,2013-07-13 02:31:00,
2013-07-12 22:36:00,74.2,69.8,29.94,ESE,113,0.0,0.0,86,0.00,,---,0.43,0.00,VWS V14.01,2013-07-13 02:36:00,
2013-07-12 22:42:00,74.0,69.6,29.93,ESE,113,1.0,2.0,86,0.00,,---,0.43,0.00,VWS V14.01,2013-07-13 02:42:00,
2013-07-12 22:47:00,73.8,69.3,29.93,ESE,113,0.0,0.0,86,0.00,,---,0.43,0.00,VWS V14.01,2013-07-13 02:47:00,
2013-07-12 22:52:00,73.8,69.7,29.93,ESE,113,0.0,0.0,87,0.00,,---,0.43,0.00,VWS V14.01,2013-07-13 02:52:00,
2013-07-12 22:58:00,73.7,69.9,29.93,ESE,113,0.0,0.0,88,0.00,,---,0.43,0.00,VWS V14.01,2013-07-13 02:58:00,
2013-07-12 23:03:00,73.6,69.8,29.94,ESE,113,0.0,0.0,88,0.00,,---,0.43,0.00,VWS V14.01,2013-07-13 03:03:00,
2013-07-12 23:08:00,73.5,69.7,29.94,ESE,113,0.0,1.0,88,0.00,,---,0.43,0.00,VWS V14.01,2013-07-13 03:08:00,
2013-07-12 23:13:00,73.3,69.5,29.94,ESE,113,0.0,0.0,88,0.00,,---,0.43,0.00,VWS V14.01,2013-07-13 03:13:00,
2013-07-12 23:18:00,73.2,69.4,29.94,ESE,113,0.0,2.0,88,0.00,,---,0.43,0.00,VWS V14.01,2013-07-13 03:18:00,
2013-07-12 23:23:00,73.0,69.2,29.95,ESE,113,0.0,2.0,88,0.00,,---,0.43,0.00,VWS V14.01,2013-07-13 03:23:00,
2013-07-12 23:29:00,72.8,69.4,29.94,ESE,113,0.0,0.0,89,0.00,,---,0.43,0.00,VWS V14.01,2013-07-13 03:29:00,
2013-07-12 23:34:00,72.7,69.3,29.93,ESE,113,0.0,0.0,89,0.00,,---,0.43,0.00,VWS V14.01,2013-07-13 03:34:00,
2013-07-12 23:39:00,72.6,69.2,29.94,ESE,113,0.0,1.0,89,0.00,,---,0.43,0.00,VWS V14.01,2013-07-13 03:39:00,
2013-07-12 23:45:00,72.5,69.4,29.93,ESE,113,0.0,3.0,90,0.00,,---,0.43,0.00,VWS V14.01,2013-07-13 03:45:00,
2013-07-12 23:50:00,72.4,69.3,29.93,ESE,113,2.0,3.0,90,0.00,,---,0.43,0.00,VWS V14.01,2013-07-13 03:50:00,
2013-07-12 23:55:00,72.3,69.2,29.93,ESE,113,0.0,0.0,90,0.00,,---,0.43,0.00,VWS V14.01,2013-07-13 03:55:00,